Theta_e
327 329 327 327 326 324 323 322 319 319 321 320 316 315 319 322 315 313 324 330 324 327 333 333 333 335 333 334 334 332 332 333 344 359 362 357 356 358 359 360 363 365 365 367 367 365 367 366 365 365 365 363 364 364 365 365 363 362 363 364 365 365 365 365 366 365 364 360 357 355 351 348 348 349 348 346 346 347 348 347 344 340 339 337 336 337 339
326 328 328 329 326 323 323 323 323 323 322 320 320 320 322 323 319 320 327 329 329 331 331 331 333 333 333 333 333 333 331 331 345 360 360 356 356 357 358 361 362 364 365 367 367 366 366 366 365 365 364 364 365 365 365 365 364 363 364 365 366 366 366 366 365 364 361 357 356 354 350 347 348 348 347 346 346 346 344 343 341 339 339 338 336 336 337
322 327 328 327 326 324 321 321 324 325 322 321 321 321 323 322 320 322 325 325 327 332 332 330 332 332 333 333 332 333 334 336 348 357 357 356 357 356 358 360 362 364 364 366 366 365 366 366 366 365 366 366 366 364 364 365 365 364 364 366 367 366 366 366 364 363 360 357 356 354 349 348 349 349 347 345 345 343 342 341 339 339 340 339 337 337 337
318 323 326 325 326 324 318 317 322 323 321 320 320 322 323 322 320 322 320 317 322 331 333 331 332 332 332 333 334 335 339 344 350 355 357 358 359 359 359 360 362 362 363 365 366 364 364 366 367 366 367 368 366 365 364 364 365 365 364 366 367 367 366 365 364 363 360 357 356 352 349 348 349 349 347 344 343 343 342 341 341 340 341 340 339 338 336
319 323 324 322 321 319 315 317 322 324 324 324 323 323 325 325 324 321 318 318 326 332 331 328 331 332 330 333 336 336 342 351 357 357 358 360 360 360 360 361 362 361 360 362 364 365 364 366 366 366 368 368 367 365 365 364 364 364 365 366 367 368 368 366 365 364 360 358 356 352 349 348 348 348 346 344 344 344 343 343 341 340 340 340 339 338 337
321 323 323 322 319 315 317 323 326 327 325 325 324 323 324 326 327 324 324 326 330 331 328 328 332 333 330 333 340 345 350 356 360 360 358 359 360 360 359 359 359 360 360 362 363 365 365 364 365 366 366 366 367 367 365 365 365 364 365 366 367 368 368 367 365 363 360 358 355 353 350 348 347 347 346 346 346 345 344 343 341 340 339 339 340 339 336
323 323 324 321 317 318 324 327 328 327 326 327 326 326 327 326 326 327 328 330 330 331 331 331 333 335 335 340 349 352 350 351 354 354 355 357 359 358 360 360 359 360 361 360 362 364 363 362 363 364 365 366 367 366 365 365 365 365 366 366 366 368 368 367 365 363 360 358 356 354 351 349 347 347 346 347 347 345 344 343 342 341 339 340 342 339 333
326 324 321 320 322 326 331 333 332 328 328 328 324 323 326 327 327 328 328 329 330 331 332 334 340 343 345 348 352 351 347 346 347 345 346 350 352 354 358 359 360 361 359 357 361 362 361 360 362 363 364 363 362 362 362 364 366 366 366 367 367 368 367 366 364 362 360 359 357 355 352 350 348 347 347 348 346 344 344 343 342 341 340 341 341 338 335
329 324 321 323 324 324 328 332 334 334 333 333 328 322 323 328 328 328 330 332 331 329 333 340 345 344 344 344 345 345 343 345 345 343 342 345 347 350 353 356 358 360 358 357 359 359 359 360 360 360 359 358 358 359 360 364 367 365 366 367 367 367 367 365 363 361 360 359 357 355 353 351 349 348 348 348 346 345 344 342 341 341 341 340 338 336 336
328 324 324 327 322 320 328 335 338 338 336 338 340 329 325 330 333 331 333 334 332 332 339 344 344 342 341 339 340 343 344 343 344 343 342 343 344 347 350 353 357 359 358 357 357 356 356 356 355 356 356 356 358 360 361 364 365 364 365 367 367 367 367 365 362 360 360 359 357 355 354 352 350 349 348 347 346 345 343 342 341 340 339 337 335 334 334
327 324 325 326 321 324 337 342 339 338 334 337 341 328 322 334 342 338 336 336 335 337 342 345 344 341 336 333 338 346 346 343 343 344 344 344 346 348 349 352 355 357 356 355 354 353 353 355 355 356 356 357 361 363 362 361 362 363 364 366 367 367 366 364 362 359 358 358 356 354 354 352 350 349 348 346 344 343 341 339 338 337 334 332 330 331 333
326 326 325 324 323 331 343 341 335 336 335 337 333 320 321 338 347 341 339 338 338 342 345 346 343 339 335 335 344 348 347 347 347 348 348 349 350 351 352 354 357 357 356 356 355 356 358 359 359 358 359 361 364 364 362 360 361 364 365 366 367 365 364 363 361 358 357 356 355 353 353 352 350 349 347 345 343 341 339 337 334 333 330 327 327 330 333
325 326 325 324 326 336 341 337 334 336 336 334 327 321 331 348 348 343 343 340 340 344 346 343 342 343 344 347 350 349 349 352 353 352 351 352 353 353 354 357 358 357 357 358 359 361 362 362 361 360 362 365 364 363 362 362 362 364 365 365 365 363 363 362 360 357 355 354 353 353 351 350 348 347 345 344 341 339 337 335 332 330 329 328 330 332 333
321 324 326 324 327 337 338 334 335 336 333 331 330 333 344 347 344 344 344 340 340 344 344 344 345 348 350 350 351 351 351 353 354 353 352 353 354 355 356 357 356 356 358 359 359 360 360 360 360 362 363 364 363 362 362 362 362 362 363 363 362 361 361 359 356 355 353 352 352 350 348 347 346 344 342 341 339 337 336 335 333 332 332 331 332 333 333
323 324 326 325 328 337 337 335 339 340 336 336 339 343 343 342 342 345 344 343 345 345 346 347 349 349 351 351 352 353 352 352 353 352 353 354 354 354 355 355 355 357 358 357 357 357 356 357 358 360 361 362 362 362 362 361 359 359 359 359 359 358 358 355 353 351 350 350 349 346 344 344 343 341 339 338 337 337 336 336 335 335 335 334 333 333 334
325 322 326 330 335 337 335 336 342 342 340 340 341 340 340 339 341 343 343 345 347 346 347 348 346 347 348 349 350 351 350 351 351 351 352 352 351 351 351 353 354 356 357 357 357 357 357 357 358 359 360 361 361 360 359 356 354 355 356 357 356 356 354 352 350 348 347 347 345 343 342 341 340 339 338 337 337 337 336 337 337 336 335 335 334 333 335
333 329 333 338 338 336 333 334 338 338 336 336 336 337 338 339 339 340 342 343 342 342 343 343 341 342 343 342 344 346 347 349 350 350 349 348 348 350 351 353 353 353 354 356 355 356 357 356 356 356 356 357 358 357 354 352 352 354 355 355 355 353 352 350 348 346 345 344 343 341 340 339 339 338 336 336 337 337 337 337 336 335 335 335 333 333 337
339 337 339 338 335 334 333 332 332 333 332 333 335 336 337 337 337 339 340 341 341 341 340 340 340 341 340 340 342 343 345 348 349 350 351 350 349 351 352 352 352 351 352 353 353 355 356 355 354 354 354 356 358 356 353 352 353 354 354 354 353 351 349 347 345 344 344 343 341 340 339 338 338 336 335 335 336 336 336 336 334 334 335 335 334 335 338
334 334 338 337 334 333 333 332 332 331 331 332 333 335 336 336 336 337 338 339 341 340 341 341 340 339 339 341 343 343 346 347 347 349 351 351 352 354 355 355 352 348 349 351 351 352 353 353 353 353 355 357 356 353 352 352 353 353 353 352 350 349 347 345 344 343 343 341 341 340 339 337 336 336 335 335 335 335 335 334 335 335 336 337 337 337 337
334 335 339 337 334 333 332 332 333 332 331 331 332 333 334 334 334 335 336 337 338 339 340 342 342 340 339 339 340 342 345 347 347 348 349 350 351 353 355 356 355 349 348 349 350 352 354 353 351 352 353 354 352 351 350 351 352 353 352 350 349 347 345 344 343 343 342 341 340 339 338 338 337 337 336 335 336 336 335 335 335 336 338 339 339 337 336
336 337 338 335 333 334 332 330 331 332 331 331 331 331 331 331 331 332 333 334 335 336 338 339 341 342 342 341 341 342 345 347 349 349 348 348 349 350 352 354 354 353 352 352 353 354 355 354 352 352 351 350 349 349 349 350 352 352 350 349 348 346 344 343 342 341 341 340 339 338 339 338 337 336 336 336 336 336 336 336 336 336 338 340 337 336 336
336 336 336 335 335 338 336 332 330 331 331 331 331 332 331 329 329 330 330 331 331 331 333 335 337 338 340 341 340 341 344 347 349 349 349 348 348 349 348 349 350 351 352 351 351 351 352 352 351 349 348 348 347 347 348 349 351 350 349 348 347 345 344 343 342 341 341 340 340 339 339 338 336 335 334 336 336 335 334 336 337 337 337 337 336 334 334
335 334 335 337 340 341 337 333 330 330 331 330 329 330 330 329 328 328 327 328 329 329 329 330 330 332 334 335 336 337 339 342 346 348 348 348 348 347 346 347 349 350 349 348 348 348 348 348 347 346 347 347 346 346 347 348 349 349 348 348 346 344 343 342 341 341 340 340 340 340 339 338 337 335 334 333 334 334 334 334 335 333 332 332 332 332 332
333 333 334 336 337 336 333 330 329 329 330 330 329 328 328 328 327 327 327 327 327 327 328 328 329 330 329 328 330 332 332 335 340 344 344 345 347 346 345 347 349 350 350 349 349 349 347 346 345 345 346 346 347 347 348 348 349 349 348 347 345 344 343 342 341 340 340 339 339 340 339 338 336 336 335 333 331 330 331 332 332 331 329 329 329 329 330
331 332 332 333 333 331 329 329 330 329 328 329 329 328 327 327 327 327 328 328 327 326 326 326 327 330 329 327 327 328 328 329 334 338 340 340 342 343 344 345 347 348 349 349 349 349 348 346 346 346 347 347 348 348 348 348 349 349 348 346 345 344 343 342 341 340 339 339 338 338 339 338 336 336 336 335 332 329 327 327 328 327 326 326 327 327 328
329 329 328 329 328 327 327 328 329 329 327 327 328 327 326 326 325 324 324 325 325 325 325 325 325 328 330 329 328 328 328 327 329 332 333 334 337 339 341 342 344 346 346 347 348 347 346 345 346 346 347 347 347 347 348 348 348 348 348 347 344 343 343 343 343 341 341 340 338 337 337 337 336 336 335 335 334 332 328 326 325 324 323 323 324 326 326
326 326 327 327 327 326 325 325 325 325 324 324 325 324 323 324 324 323 323 323 323 323 324 325 326 327 329 330 329 328 327 326 327 327 328 329 332 335 338 341 343 343 344 346 346 344 342 344 345 345 345 345 345 345 346 346 347 348 347 346 344 343 343 343 342 341 340 340 339 338 337 337 337 336 335 334 334 332 330 330 329 328 324 322 321 322 322
325 324 325 326 326 324 323 322 322 322 322 322 322 322 322 323 324 323 323 323 323 323 322 323 325 325 326 328 329 329 327 326 326 327 327 328 329 332 337 340 341 341 343 346 345 343 342 343 343 343 343 343 343 343 344 345 346 346 346 344 342 340 341 341 339 338 338 339 339 339 338 338 336 334 334 333 332 331 331 331 331 331 328 322 319 319 319
323 322 323 323 324 324 323 323 323 322 322 323 323 323 323 323 322 322 323 323 323 323 323 324 325 325 325 325 326 327 326 325 326 327 328 328 329 331 334 338 339 339 342 344 344 344 343 343 342 342 341 340 341 341 341 342 344 343 342 340 336 335 336 336 336 336 338 338 338 337 337 336 335 334 333 332 330 330 331 331 331 331 329 323 319 318 317
321 321 321 321 321 322 323 323 322 322 322 322 322 323 322 322 322 323 323 323 323 323 323 325 325 325 325 325 325 325 324 325 326 328 328 328 329 331 333 336 337 337 339 343 344 344 343 342 342 341 340 338 338 339 339 340 341 340 339 337 335 335 336 336 335 335 336 336 335 334 333 333 333 333 331 331 331 330 330 330 331 331 330 325 322 322 320
320 320 321 321 321 321 322 322 322 321 321 321 322 322 322 322 323 323 323 323 323 323 324 325 325 325 326 326 326 326 326 326 327 327 327 328 330 332 333 335 336 337 339 342 343 343 342 341 341 340 338 337 336 336 337 338 338 338 337 335 334 333 333 333 334 334 334 335 333 331 331 331 332 331 330 331 332 331 330 331 331 331 330 327 326 325 324
320 319 319 320 321 321 321 321 321 320 320 320 321 322 322 322 323 323 322 322 322 323 324 325 326 326 327 327 327 326 326 326 326 326 327 329 331 334 335 335 336 338 340 341 341 340 340 339 339 339 337 336 335 335 336 336 337 336 334 334 334 333 330 330 332 334 334 334 332 331 330 331 331 331 332 332 332 331 331 331 331 330 329 328 327 327 325
322 322 321 321 321 321 321 321 321 320 320 320 320 321 321 321 321 322 321 322 322 323 324 325 326 327 327 327 327 326 325 325 325 326 328 331 333 334 334 335 335 337 338 339 339 339 338 338 339 338 337 336 336 335 334 334 334 334 334 335 336 335 332 331 332 333 333 332 332 332 332 332 331 332 332 331 331 331 330 330 330 330 329 328 327 326 325
322 322 321 320 320 320 320 320 320 320 320 319 319 320 320 320 321 322 323 323 323 323 324 325 326 326 326 327 327 327 325 325 326 327 330 332 333 333 333 334 334 334 335 335 337 337 336 337 338 337 336 336 336 335 335 335 335 335 336 336 335 335 334 332 332 332 332 332 332 332 332 332 332 332 332 331 331 330 329 329 329 328 327 326 326 325 324
319 320 319 319 319 319 319 319 320 320 320 320 320 320 321 321 322 323 324 324 323 323 324 325 325 325 325 327 327 327 327 327 328 330 331 331 331 331 332 332 332 333 333 333 334 335 335 336 336 336 335 335 335 335 335 336 336 336 336 335 335 334 334 333 333 332 332 332 332 332 332 333 332 331 331 330 329 329 328 327 327 326 325 325 324 323 322
319 319 319 319 319 319 319 319 319 319 320 321 321 320 321 322 323 323 323 323 323 323 323 323 324 325 325 325 326 326 327 327 328 329 329 329 329 330 331 331 332 333 333 334 334 334 334 334 333 333 333 333 334 334 334 334 334 335 335 335 334 334 333 333 333 333 332 333 332 332 330 329 329 328 328 328 328 327 327 326 325 325 324 324 323 323 321
320 320 319 319 319 319 319 319 320 321 321 321 321 321 321 323 324 324 323 322 323 324 324 324 324 325 324 324 325 325 326 326 327 328 328 329 329 330 331 331 332 333 333 333 332 332 333 332 331 331 332 333 334 334 333 333 333 334 334 334 333 333 333 332 332 332 332 331 330 329 327 327 327 327 327 326 326 326 325 324 323 323 323 323 323 322 321
320 320 320 320 320 321 321 321 321 321 321 321 321 322 322 323 324 324 323 323 323 324 325 325 325 325 325 325 325 326 326 326 327 328 329 329 330 330 331 331 331 331 332 331 330 330 331 331 331 332 333 333 333 333 332 332 333 333 333 332 332 331 330 330 330 330 330 328 327 327 327 327 326 326 325 324 324 324 323 322 322 322 322 322 322 321 321
320 320 320 320 321 322 322 322 321 322 321 321 322 323 323 323 323 323 323 323 324 325 325 325 326 326 326 326 326 326 327 327 327 328 329 328 329 329 329 329 329 330 329 329 328 329 330 330 330 331 332 331 331 331 329 329 329 330 330 330 330 329 328 328 328 328 328 327 326 325 325 325 324 324 323 323 323 322 322 321 320 320 320 320 320 320 320
320 320 321 320 321 321 321 321 321 321 321 322 322 322 322 323 323 323 323 324 324 325 325 325 325 326 326 326 326 327 327 327 327 327 327 327 328 329 328 327 328 328 328 327 328 329 329 329 329 329 329 329 329 328 326 325 327 328 327 327 327 327 327 327 326 326 326 325 324 323 323 322 322 321 321 321 321 321 320 320 319 318 318 318 318 318 319
322 322 322 322 322 322 322 322 322 322 322 322 322 322 323 323 324 325 324 324 324 325 325 325 326 326 326 326 326 326 326 326 326 326 327 327 328 328 327 327 327 328 328 328 328 328 328 328 329 329 329 329 328 327 326 325 326 327 326 326 326 326 326 326 325 325 325 323 322 322 322 321 320 319 319 319 319 319 319 318 318 317 317 317 317 317 317
322 323 322 322 322 323 323 323 322 322 322 322 322 323 323 324 324 324 324 324 324 324 324 325 325 325 325 325 325 325 325 325 326 326 326 327 327 327 327 328 329 328 327 327 327 327 327 327 328 328 329 328 327 326 325 325 325 325 325 325 325 325 325 324 324 323 323 322 321 321 320 319 319 319 319 319 319 318 318 317 317 317 317 317 317 316 316
322 322 322 321 322 323 323 323 323 322 322 322 323 323 323 323 323 323 323 323 323 324 324 324 324 324 325 325 325 325 325 325 325 325 325 326 327 328 328 328 327 326 325 325 326 325 325 326 326 326 325 324 322 321 322 322 323 322 323 323 323 323 322 322 322 322 321 320 320 320 319 318 318 319 318 317 317 317 316 315 315 315 315 316 316 316 316
323 323 322 322 322 322 321 321 322 322 322 322 322 322 322 322 323 323 323 323 323 323 323 323 323 323 324 324 324 325 324 324 324 324 324 324 325 326 327 327 326 324 324 324 324 323 324 325 324 322 320 319 318 319 319 319 319 319 319 319 319 319 319 319 319 318 318 318 318 318 317 316 316 316 315 314 314 313 313 312 312 312 312 312 312 312 314
323 323 322 322 321 320 320 320 321 321 321 321 321 321 321 322 322 322 322 322 322 322 322 323 323 322 322 322 323 324 324 324 324 323 323 323 323 323 324 326 326 325 323 323 323 323 324 323 320 318 317 316 316 318 318 317 316 316 315 315 315 315 315 315 315 316 316 316 315 315 315 314 313 313 313 312 311 311 311 311 310 310 310 310 310 310 311
323 323 322 322 321 321 320 320 320 320 319 319 319 319 320 320 320 320 320 321 321 321 321 321 321 321 321 321 321 322 322 323 323 323 322 322 323 323 323 324 324 324 322 322 322 323 322 320 318 317 317 316 316 317 316 315 314 314 314 313 313 313 313 313 313 313 314 313 313 313 313 313 312 312 311 311 310 310 310 309 309 309 309 309 309 309 309
323 323 322 322 322 322 321 320 319 318 318 318 318 318 317 318 318 318 318 319 320 320 320 319 320 320 320 320 321 320 320 321 322 322 321 321 322 322 322 322 322 323 323 323 322 322 321 319 318 317 316 316 317 318 316 314 314 314 313 313 313 313 313 313 313 313 312 312 312 311 311 311 311 311 311 310 310 310 310 309 309 309 309 308 308 308 308
323 323 323 323 323 322 321 319 318 317 317 318 318 317 317 317 317 317 317 317 317 317 317 317 318 318 319 320 319 319 318 319 319 319 320 320 320 320 321 321 321 322 323 323 322 321 320 319 318 317 316 316 318 318 317 314 314 314 314 314 314 314 313 313 313 313 313 312 312 311 311 311 311 311 311 311 311 311 310 309 309 308 308 308 307 307 307
323 323 322 322 321 320 319 318 317 317 317 317 317 317 317 317 317 316 315 316 315 315 315 316 316 316 317 318 317 317 318 319 319 318 319 319 319 319 320 320 320 321 322 322 322 321 320 319 318 318 317 318 319 319 317 315 314 314 314 314 314 314 313 313 313 313 313 313 313 313 313 313 312 312 312 312 311 311 310 309 309 308 308 307 306 306 306
322 321 320 319 318 318 318 318 317 317 317 316 317 317 317 316 316 315 315 315 315 314 314 314 314 315 315 315 315 316 317 318 318 318 318 318 319 319 319 319 320 321 321 321 321 320 320 320 319 318 318 319 320 319 317 316 315 315 315 314 314 314 314 313 313 313 313 313 313 313 313 313 313 312 312 312 311 311 310 309 309 308 307 306 306 306 306
321 321 320 318 318 319 319 319 319 319 318 317 316 316 315 315 315 315 316 315 315 314 314 314 314 314 314 314 314 315 315 316 316 316 316 317 317 317 318 319 320 321 321 320 320 320 320 320 320 319 320 320 320 319 318 317 316 315 315 315 315 315 314 314 313 313 313 313 313 313 313 313 313 312 312 312 311 311 310 309 309 308 307 307 307 307 307
319 319 319 318 317 317 317 318 319 319 319 317 316 316 316 316 315 315 316 316 315 315 315 316 315 314 315 315 315 315 315 316 316 315 316 316 316 316 317 317 318 319 319 318 318 318 319 319 319 320 320 320 319 318 318 318 317 317 316 316 315 315 315 314 314 314 314 313 313 313 313 313 313 312 312 312 311 311 311 310 309 308 308 307 307 307 307
Wind_Speed
20 21 20 19 18 17 17 19 21 22 23 25 24 23 23 20 16 14 12 15 19 19 20 22 18 14 15 14 13 14 16 17 12 8 9 10 10 11 13 14 15 15 15 15 16 16 17 19 22 21 21 22 22 21 21 21 21 21 20 20 21 22 21 21 20 20 19 17 18 20 23 27 27 24 31 38 41 44 46 46 43 37 32 34 35 33 31
20 23 24 24 23 21 20 22 22 23 24 26 25 24 25 25 23 21 17 18 19 18 19 23 22 18 16 14 14 15 18 18 14 9 10 11 12 13 14 15 15 15 15 15 15 16 16 18 21 21 21 21 21 21 21 20 21 21 20 20 20 21 20 19 17 17 18 19 21 23 27 29 28 32 40 43 44 45 45 45 42 35 31 34 35 34 34
17 21 23 25 25 24 24 24 24 25 25 26 26 24 23 23 24 24 24 22 18 15 16 20 21 19 18 16 17 17 16 17 15 12 11 11 12 13 14 14 14 14 14 15 16 16 17 19 21 21 21 21 22 22 21 20 20 20 20 20 19 20 20 18 17 18 18 20 21 22 27 32 34 38 42 43 42 41 38 38 38 33 30 31 33 33 34
12 15 20 23 24 25 26 25 25 25 24 22 22 21 21 20 20 22 23 21 16 12 14 17 17 19 20 18 18 17 15 15 14 13 12 12 12 12 13 14 14 15 16 16 18 18 18 20 22 21 21 21 21 21 21 20 20 20 20 19 18 19 19 17 18 19 19 20 23 24 27 34 38 39 41 40 37 34 30 29 30 27 25 28 32 32 31
9 12 17 19 20 20 20 19 21 23 23 22 21 21 22 23 20 18 17 16 14 14 16 18 19 21 21 19 17 16 15 13 12 12 12 12 12 12 13 13 14 16 16 16 17 17 18 20 22 21 21 20 19 19 19 18 18 19 19 19 18 18 18 17 18 20 19 21 24 26 29 35 38 38 38 37 35 30 25 23 25 26 25 26 30 30 26
8 11 12 12 14 15 12 13 18 22 23 24 23 22 22 23 20 16 15 15 15 16 18 19 20 21 21 19 16 12 10 8 8 10 11 10 9 10 11 13 14 13 13 13 14 17 19 21 22 21 20 18 16 17 17 17 17 17 17 18 17 16 17 18 17 19 20 22 25 27 28 32 36 35 34 34 32 28 22 21 24 26 25 25 26 27 27
7 8 9 11 13 13 11 12 16 19 21 23 23 23 23 23 22 20 19 18 15 15 16 17 18 18 16 13 10 8 6 6 8 9 9 8 8 8 9 11 12 12 12 12 12 15 17 18 19 19 19 17 16 16 17 17 17 17 16 17 16 16 17 17 17 19 20 21 24 25 25 28 31 33 34 33 30 25 22 22 23 24 25 25 24 26 30
6 6 8 10 9 8 9 9 8 10 14 18 20 21 22 23 22 20 20 19 17 16 16 14 11 10 7 5 4 5 6 7 8 9 9 9 10 9 8 8 9 11 12 13 13 15 16 16 17 18 18 18 17 17 17 17 17 17 16 16 16 15 16 16 17 20 20 20 21 22 23 25 26 28 31 31 27 24 23 23 23 22 23 24 24 26 28
6 7 8 8 8 10 10 6 3 3 6 9 12 14 17 19 19 18 17 17 17 17 14 10 6 5 4 5 6 8 8 8 8 10 9 8 9 10 9 9 11 13 14 14 16 17 17 16 16 17 17 18 17 17 17 17 16 16 16 15 15 15 15 16 17 19 19 19 19 20 22 23 24 25 27 26 24 24 25 25 25 24 24 24 26 28 24
5 7 8 8 10 11 6 1 4 5 6 7 6 8 12 13 14 16 17 17 18 17 12 9 7 6 6 8 8 8 9 8 8 9 9 8 8 9 10 10 12 16 18 19 20 20 19 18 17 16 17 18 17 16 16 16 15 15 14 14 14 14 15 16 16 16 17 18 18 19 20 22 23 24 24 24 23 22 21 20 21 23 23 21 23 25 21
5 7 7 7 9 5 3 7 8 7 7 7 4 7 11 11 13 15 16 17 18 16 12 10 9 8 9 10 8 8 8 7 7 8 9 8 7 8 10 11 12 15 18 19 21 21 20 18 17 17 17 18 16 14 14 14 13 13 12 12 13 13 14 15 14 14 15 15 16 17 18 20 21 20 20 22 22 21 19 18 18 21 23 21 20 19 16
6 7 7 6 7 1 7 10 10 8 6 2 4 10 9 7 12 13 13 16 15 12 10 10 10 10 10 7 4 7 7 6 6 6 7 8 7 9 11 13 15 16 17 17 18 20 19 17 16 16 17 16 15 13 12 12 11 11 11 11 11 12 12 13 13 12 12 13 14 14 15 15 16 16 17 18 19 19 18 18 19 21 22 20 19 18 15
10 9 6 6 6 1 7 11 10 7 4 4 8 9 3 1 4 7 9 13 12 10 10 10 9 7 3 2 5 8 9 9 8 7 8 9 10 11 13 15 18 18 18 17 18 19 19 18 17 17 16 16 15 13 12 12 11 11 11 11 11 12 12 12 12 11 11 11 12 11 12 13 14 14 14 15 16 19 19 17 18 20 19 17 16 17 16
12 10 7 7 5 2 8 11 8 4 5 5 4 3 3 3 3 3 7 10 9 10 11 9 6 5 6 7 8 10 10 11 12 11 12 13 13 14 16 16 17 18 17 18 19 20 20 19 17 17 17 17 15 14 13 12 11 11 11 11 10 10 11 11 10 10 10 10 10 11 12 14 15 14 14 15 17 19 20 18 17 19 19 17 17 18 18
10 10 9 9 6 3 8 8 4 3 4 2 2 3 2 2 2 2 2 4 7 9 10 9 10 11 11 10 11 12 12 13 14 14 15 16 16 17 17 17 17 17 17 17 19 20 20 19 17 17 18 17 15 14 14 13 12 12 11 10 10 10 10 11 10 10 10 11 11 10 10 12 14 14 14 15 17 18 19 19 19 19 19 19 18 18 17
9 11 9 5 1 4 6 5 2 2 3 4 3 1 2 5 5 5 5 5 7 10 13 15 15 14 14 13 14 14 14 15 15 15 16 17 17 17 18 19 20 19 17 17 18 18 18 17 16 16 18 17 15 13 13 14 15 15 13 12 12 11 11 12 11 11 11 12 12 10 10 11 12 13 14 15 16 17 17 17 18 18 18 18 17 16 14
3 4 2 4 5 5 4 3 1 1 1 2 2 2 5 6 6 7 8 9 10 12 15 16 16 16 16 15 15 15 14 15 15 15 16 16 17 17 18 19 21 21 20 19 19 17 16 15 15 16 18 19 17 14 13 15 16 16 16 15 14 13 13 13 13 12 13 13 13 12 11 12 13 13 14 15 15 16 16 17 17 16 15 15 15 13 11
4 3 3 5 8 8 5 3 2 2 3 4 5 6 7 7 8 9 9 10 10 11 12 14 15 15 15 16 15 14 13 13 14 14 14 14 15 16 16 17 19 21 21 20 19 17 16 15 15 14 15 17 18 17 17 16 15 15 16 15 14 14 14 14 14 14 14 15 15 13 12 12 13 14 14 14 14 15 16 17 15 14 13 13 13 12 9
5 3 4 6 9 9 6 3 4 6 7 7 7 7 7 8 10 11 11 11 10 10 11 13 14 15 16 16 14 12 12 12 12 13 13 12 12 13 13 13 15 18 17 16 16 16 14 13 12 11 10 11 13 16 17 15 14 15 16 16 15 15 14 14 14 15 15 15 14 14 14 14 13 14 14 13 14 15 16 16 15 13 12 11 11 11 10
6 6 8 8 10 10 7 5 5 6 8 9 9 7 8 10 11 12 13 11 10 9 10 11 13 15 15 14 13 11 10 10 11 11 12 11 11 12 13 12 13 15 15 14 14 14 12 10 9 9 9 9 11 12 13 13 14 15 16 16 15 15 15 15 15 14 14 14 14 14 14 13 12 13 14 14 15 15 15 15 14 13 13 12 11 11 10
6 8 9 9 9 7 6 7 8 8 8 8 9 10 11 12 13 14 14 13 12 11 11 11 13 14 13 13 13 13 11 10 10 10 10 10 11 11 12 12 13 13 13 12 12 12 11 10 9 9 9 10 11 11 11 12 13 14 15 15 15 15 15 15 14 14 14 13 13 14 13 11 11 12 11 10 11 11 12 12 11 10 10 10 8 8 8
7 7 8 9 8 6 4 7 9 10 9 9 10 12 13 13 13 13 14 14 13 13 14 13 13 14 13 12 13 13 11 10 10 10 9 9 10 10 10 10 11 12 11 11 11 11 10 9 9 9 9 9 10 10 11 12 12 13 14 14 14 15 14 13 14 14 13 13 13 13 13 11 12 12 9 8 8 8 9 11 10 7 6 8 8 7 7
1 0 4 5 6 7 6 6 7 8 9 10 12 13 13 13 13 13 14 14 13 13 13 13 14 14 13 12 13 13 12 11 10 10 10 9 9 9 8 8 9 9 9 8 9 9 8 7 7 7 7 8 9 9 10 11 12 13 14 13 13 13 12 12 13 13 12 13 13 13 12 12 12 12 10 9 8 7 7 8 8 8 7 9 10 8 6
5 2 2 3 4 8 8 6 7 8 9 10 11 12 13 12 12 13 13 13 12 12 12 12 13 13 12 12 13 13 12 11 11 11 11 11 10 8 8 8 7 7 7 6 6 6 5 4 4 4 5 7 8 9 11 12 12 13 13 11 11 11 11 13 14 13 12 13 13 13 12 13 13 12 10 9 8 7 6 6 7 7 7 7 9 10 9
2 5 8 7 8 12 12 8 7 6 7 8 9 9 11 12 11 11 12 12 12 12 12 12 13 13 12 11 11 11 11 11 11 11 10 10 10 8 8 8 8 7 7 6 5 4 4 4 4 4 6 8 8 9 11 11 11 12 11 10 10 11 11 13 13 13 12 13 13 13 13 13 13 11 10 9 9 8 7 6 5 5 5 6 7 9 11
3 8 12 13 13 12 11 9 7 6 6 7 6 6 8 10 10 10 11 10 10 11 11 10 11 12 11 10 9 10 10 10 11 11 10 10 10 9 8 9 9 7 7 6 5 5 4 4 5 5 6 7 8 8 9 10 10 10 9 8 9 10 11 13 13 12 11 12 12 12 12 12 11 10 9 9 9 11 9 7 5 3 3 5 6 7 9
7 9 12 13 12 10 9 9 9 9 8 8 7 7 7 6 6 8 9 9 9 10 10 9 9 9 10 10 9 9 10 11 10 10 10 11 11 10 9 9 8 7 6 6 6 6 5 4 5 5 5 6 7 7 8 8 9 8 8 8 8 8 10 11 11 10 10 11 10 10 10 10 10 10 9 8 9 10 10 7 6 6 6 7 8 10 11
11 10 9 10 11 10 10 11 10 9 8 8 7 6 7 7 7 6 6 7 7 7 7 8 8 6 6 7 7 7 8 9 8 8 9 9 9 8 8 7 6 6 6 6 6 5 4 4 4 5 5 5 6 7 8 8 8 8 7 7 7 9 9 9 8 8 9 9 9 9 10 10 10 9 9 8 8 8 8 6 6 7 9 10 11 12 12
11 11 11 11 11 10 9 10 10 10 9 8 6 5 5 7 7 6 5 5 5 4 4 6 7 6 6 6 6 5 6 6 6 6 7 7 7 7 7 6 6 5 5 5 5 4 4 3 3 4 5 5 6 7 8 8 8 7 7 7 7 8 9 8 7 7 8 8 8 9 9 9 9 8 7 7 6 6 6 6 7 8 9 11 12 12 11
9 10 11 11 10 10 10 9 9 9 9 8 8 7 7 6 5 4 4 4 4 4 4 5 5 6 7 7 7 7 6 5 5 5 5 6 7 8 8 8 6 3 3 5 5 4 4 3 4 4 5 6 7 8 9 9 8 8 7 6 6 6 7 7 6 6 6 7 8 9 9 8 7 6 5 5 4 5 5 5 6 7 8 10 11 10 11
9 11 12 10 10 11 10 8 7 8 8 8 8 8 7 6 5 4 4 4 4 4 5 5 4 5 6 6 6 6 6 5 5 5 5 6 8 8 9 8 6 4 4 5 5 5 3 3 4 4 5 6 8 9 9 9 9 9 8 7 6 6 7 7 5 4 5 7 7 7 7 6 5 5 4 3 4 4 5 5 7 7 7 8 9 9 11
9 10 10 9 8 8 8 6 5 6 6 6 7 6 6 5 5 5 5 4 4 5 5 5 5 5 5 5 5 5 5 4 4 4 4 6 7 8 8 7 6 6 5 5 4 4 3 1 3 5 5 6 8 9 9 9 9 10 9 8 6 5 5 6 5 4 5 7 7 7 6 6 5 5 5 4 4 5 5 6 7 7 6 7 7 7 10
6 7 6 5 4 3 2 2 2 3 4 5 5 4 4 4 4 4 4 4 5 6 6 6 6 6 6 5 5 5 4 4 3 3 5 6 7 8 8 6 6 6 6 5 4 2 1 1 3 5 6 5 6 8 8 8 9 10 9 8 6 5 5 6 7 7 7 7 7 7 6 6 6 6 6 6 5 5 6 6 6 6 6 5 5 6 9
3 4 4 3 2 0 0 1 2 3 3 4 3 3 2 2 2 3 4 4 5 6 5 6 7 7 6 5 5 5 4 4 3 4 6 7 7 7 7 6 5 6 6 6 5 3 2 2 3 5 7 6 6 6 6 8 8 9 9 8 6 6 7 8 9 9 9 9 9 9 8 8 7 7 6 6 5 5 5 5 5 5 5 5 5 5 7
2 4 4 3 2 1 1 2 3 3 3 3 3 2 2 2 3 4 4 5 5 6 5 5 6 6 6 6 6 5 5 5 4 5 6 6 6 6 6 5 4 5 5 6 6 4 3 2 2 5 7 7 6 6 7 8 8 8 8 8 8 9 9 10 10 11 11 12 12 11 10 9 8 7 6 5 4 4 4 4 4 4 5 6 5 5 6
2 3 3 3 2 2 3 3 3 3 3 3 3 3 4 4 5 6 6 7 7 8 7 7 6 6 6 6 6 6 6 6 6 6 5 5 5 5 4 3 3 3 5 7 7 5 3 3 3 5 6 6 6 6 8 9 9 9 10 10 11 12 12 11 11 12 12 12 13 12 12 11 10 8 6 4 3 4 5 4 3 3 4 4 5 6 7
3 2 2 2 2 4 5 4 4 5 5 4 4 5 5 6 7 8 8 9 9 9 9 9 8 7 7 7 7 7 7 6 6 5 5 4 4 3 3 3 3 3 5 7 8 8 8 6 4 4 5 5 6 8 10 10 10 11 12 12 13 15 14 13 12 11 11 11 12 12 11 11 10 8 6 4 4 4 4 4 4 4 5 5 6 7 8
3 3 3 4 4 5 5 5 5 6 6 6 6 6 6 6 7 7 8 9 10 9 9 9 9 8 8 8 7 7 7 6 5 5 5 5 5 4 4 5 5 6 7 7 8 9 10 8 7 7 8 8 10 12 14 13 12 11 12 12 13 15 14 12 10 9 10 11 11 11 9 8 7 7 6 5 4 4 4 3 4 5 5 5 6 7 8
4 4 4 5 5 5 5 5 5 6 6 6 6 6 5 6 6 7 9 10 10 9 9 10 10 10 9 8 8 7 7 6 5 5 5 5 6 7 7 7 7 7 7 6 7 8 9 8 8 10 11 11 12 14 15 14 12 11 10 11 12 13 13 12 10 10 10 10 10 8 7 6 6 6 6 5 5 5 4 2 2 4 5 5 5 6 7
5 5 5 5 5 5 5 4 5 6 6 6 6 6 6 6 6 7 9 9 9 9 10 11 11 10 9 9 8 7 6 5 5 4 4 4 4 5 6 6 6 5 4 4 4 6 7 7 7 8 10 10 11 11 11 11 10 9 9 10 10 11 11 11 11 10 9 9 8 7 6 6 6 5 5 5 4 4 3 3 2 3 4 5 5 6 6
5 6 6 6 6 6 6 5 6 6 6 7 7 7 6 6 6 7 8 8 8 9 10 10 10 9 8 8 8 7 7 6 6 6 5 3 2 3 3 4 5 4 4 4 5 5 5 5 5 6 7 7 8 8 7 7 7 8 8 8 8 9 8 9 9 9 9 8 8 7 6 6 6 5 5 4 3 3 3 3 3 4 5 5 6 6 6
6 6 7 7 7 7 7 7 7 7 7 7 7 7 7 7 7 7 7 7 7 8 9 9 8 8 7 7 7 7 8 8 8 8 8 8 6 4 4 6 7 6 6 5 5 6 5 5 6 6 6 7 8 8 7 6 6 7 7 7 7 8 8 8 8 8 8 7 7 6 6 6 5 5 4 3 3 2 3 4 5 5 6 7 7 7 8
7 7 7 7 7 8 8 8 8 8 8 9 8 8 8 8 8 8 8 8 8 8 9 9 8 7 7 7 6 6 7 7 7 7 8 9 10 9 7 7 7 7 5 4 4 6 6 6 6 7 8 9 10 9 6 5 5 6 5 6 6 6 6 6 6 6 6 6 6 6 5 4 4 4 3 2 2 2 2 3 4 5 5 6 7 8 9
7 7 7 7 7 8 8 8 8 8 8 8 9 9 9 9 9 9 9 9 9 9 9 8 8 8 8 7 7 6 6 6 6 5 5 6 7 8 7 6 5 5 4 3 3 4 5 6 8 9 10 10 10 7 4 3 4 4 4 5 5 5 5 5 5 5 6 5 5 5 4 4 3 3 2 2 1 1 2 2 3 3 4 6 7 9 10
7 7 7 7 8 8 8 8 7 7 6 7 9 9 9 9 9 9 9 9 8 8 8 8 8 8 8 8 7 6 6 5 6 6 5 3 4 5 4 3 3 3 3 2 2 3 5 6 8 9 9 9 8 5 3 3 4 4 4 5 4 4 5 5 5 5 5 5 4 4 4 4 3 3 3 2 2 2 3 2 3 5 5 6 7 7 8
5 5 5 6 7 7 7 7 6 6 6 7 8 9 9 8 8 8 8 8 8 8 8 8 9 8 8 8 7 6 5 5 5 6 6 5 4 4 3 2 2 2 2 1 1 3 4 5 6 7 7 7 5 3 3 3 4 4 4 4 4 4 5 5 5 5 5 5 4 4 4 4 4 3 3 3 2 3 3 3 4 6 6 6 6 7 7
3 4 4 5 5 5 6 6 6 7 7 6 6 6 8 8 8 8 8 8 7 7 7 8 8 7 7 7 7 7 6 5 4 5 5 4 3 3 3 3 2 2 1 1 0 2 5 6 6 6 6 6 4 2 2 3 4 3 3 3 3 3 4 4 4 5 5 5 5 4 4 4 4 4 4 4 4 5 5 4 5 6 5 5 6 7 7
2 3 3 3 3 3 4 4 5 6 6 5 5 6 7 7 7 7 7 7 6 6 6 6 7 6 6 5 6 6 7 6 5 5 6 5 4 3 3 3 1 2 3 3 3 3 5 7 8 8 8 7 5 3 3 3 3 3 3 4 3 4 4 5 5 5 5 6 6 6 6 6 6 5 5 5 5 5 5 5 6 6 5 5 5 6 7
2 2 2 2 3 3 3 3 4 4 4 4 5 6 6 6 5 6 7 7 7 6 5 5 5 6 5 4 4 5 6 5 5 5 5 6 5 4 3 2 0 1 3 4 4 4 6 7 8 9 9 9 8 6 5 5 5 4 4 4 4 5 5 5 6 6 6 6 6 6 6 6 6 6 6 7 8 8 7 7 7 6 5 6 7 7 7
2 2 2 3 4 4 4 4 4 4 4 5 5 6 6 6 5 6 8 8 7 7 7 6 6 6 6 6 6 7 6 6 6 6 6 6 6 5 4 3 1 2 4 5 5 4 6 8 9 10 11 11 10 9 8 7 7 7 6 6 6 6 6 6 6 7 7 7 7 7 7 7 7 8 8 9 9 9 9 9 8 7 7 8 8 7 6
3 3 3 4 4 4 5 5 5 4 5 5 6 6 6 7 6 6 8 8 8 8 8 8 7 7 7 8 9 9 9 9 9 9 8 8 8 7 6 5 4 4 5 6 6 6 6 7 9 11 13 12 11 11 10 9 9 9 8 8 8 8 8 8 9 9 9 9 8 8 8 9 9 9 10 11 11 10 10 10 10 9 9 8 8 7 6
5 5 5 4 4 4 5 6 6 6 6 6 7 7 7 7 7 6 7 8 8 8 8 8 8 8 9 9 10 11 11 11 11 11 11 11 11 10 9 8 7 7 7 7 7 7 7 7 8 11 12 13 12 11 11 11 11 11 11 10 10 10 10 10 10 10 10 10 10 10 10 10 10 11 11 12 12 11 11 12 12 11 10 9 8 8 7
Wind_Direction
236 239 238 234 231 229 229 226 221 221 223 225 228 232 233 233 237 241 231 223 227 230 234 236 232 228 234 237 236 243 252 258 252 209 189 198 196 189 189 193 193 189 186 185 183 185 187 188 191 192 194 196 196 197 198 198 200 199 196 196 197 200 204 205 204 204 201 187 173 176 179 170 170 198 221 222 222 220 217 217 217 213 208 208 211 211 207
237 237 235 236 236 232 230 231 228 226 225 224 227 232 234 234 239 243 240 234 232 229 229 236 239 240 241 243 246 249 252 256 252 223 206 208 200 192 193 197 197 192 188 186 183 184 187 191 192 193 193 193 193 195 196 196 198 198 195 194 197 200 202 202 202 202 190 169 164 178 185 180 188 213 223 222 222 219 214 215 215 210 204 206 210 208 207
241 237 235 235 237 235 232 230 230 232 230 227 227 229 230 233 237 239 239 241 239 230 228 234 238 239 241 244 247 247 248 250 247 233 222 215 206 199 195 196 197 191 186 183 182 184 189 191 191 191 190 190 192 195 195 193 194 194 194 194 195 198 201 199 198 197 182 166 167 177 187 194 204 217 223 224 222 219 215 213 212 208 202 202 203 202 203
239 233 232 233 236 239 237 232 228 229 231 232 230 228 227 229 232 233 236 239 237 226 226 231 233 233 237 241 243 244 244 245 242 234 225 217 209 201 196 195 193 188 186 186 186 187 188 188 189 190 188 188 190 193 192 192 191 191 192 194 194 197 202 200 197 198 186 171 170 177 189 204 212 218 224 225 222 219 215 211 208 204 198 198 200 199 199
248 241 236 234 235 238 238 233 228 229 231 233 235 233 228 227 229 230 232 234 234 230 229 229 228 230 234 237 240 243 244 244 241 236 232 226 214 203 196 192 191 191 189 188 187 186 184 185 188 189 188 187 189 189 188 187 186 186 189 193 194 196 199 198 198 201 189 171 172 181 193 207 215 218 222 223 222 218 212 207 206 203 200 200 200 197 195
251 249 248 245 239 235 232 225 225 228 230 231 234 236 232 227 227 233 237 237 232 227 227 226 226 230 232 230 228 231 234 236 239 242 244 240 228 214 200 195 196 195 191 187 185 185 185 185 186 186 187 186 184 182 181 180 182 186 188 192 195 194 194 195 197 200 189 174 176 185 194 204 211 214 218 221 221 218 209 202 203 203 201 199 196 195 195
249 248 243 239 236 235 237 234 226 226 230 233 237 241 240 234 230 230 235 238 233 227 225 225 228 231 229 220 214 212 214 224 236 243 244 240 233 225 211 203 197 188 183 180 177 181 186 184 182 181 181 180 176 176 179 180 183 188 188 190 193 192 193 194 194 197 192 180 182 190 195 201 207 211 217 222 222 217 209 204 203 202 200 197 193 193 197
244 243 234 235 245 249 252 255 237 221 228 234 236 239 240 238 235 233 232 233 231 231 229 224 222 223 215 203 205 211 214 219 229 238 240 232 226 222 214 203 188 176 175 174 169 171 177 177 175 174 175 178 179 180 182 181 183 185 185 188 190 189 191 192 193 198 194 184 187 195 197 201 207 212 217 221 219 213 210 208 204 200 197 195 190 189 193
236 240 239 245 260 254 242 239 220 213 245 248 244 243 238 232 232 235 234 229 229 232 228 211 186 180 199 221 223 211 207 212 221 232 237 233 223 215 204 190 175 166 166 165 161 159 161 166 172 174 175 178 178 176 175 175 178 181 182 185 187 187 190 191 193 197 192 185 192 199 200 203 209 214 219 220 215 210 210 210 208 201 195 190 186 184 183
239 243 241 239 247 244 232 56 38 17 342 328 303 264 242 222 216 223 226 225 227 229 219 191 166 166 207 233 224 199 193 199 207 216 222 226 222 205 192 184 173 166 165 163 159 159 164 171 176 176 173 171 167 166 167 169 173 177 178 181 183 185 187 187 189 193 189 187 195 203 205 208 212 216 220 220 216 213 209 207 204 198 190 182 179 179 177
246 248 243 242 245 240 48 26 11 358 342 348 337 255 237 207 194 206 216 220 222 223 211 187 170 179 216 233 216 177 175 187 192 195 198 200 195 179 173 174 169 165 167 165 162 164 166 167 168 166 162 158 154 155 160 162 166 170 174 176 178 179 179 178 180 188 189 190 198 205 208 211 214 215 216 219 220 217 208 197 189 184 181 176 175 179 183
228 246 251 252 246 226 38 6 346 340 335 348 213 232 233 194 183 193 206 214 216 216 206 189 184 201 226 237 187 144 149 156 154 162 169 165 158 152 152 152 148 145 150 156 157 155 149 145 149 150 147 142 140 141 149 155 158 160 163 166 167 167 167 167 170 179 187 193 201 207 206 205 209 212 213 216 216 208 196 186 179 176 174 174 178 187 194
214 230 246 260 252 75 29 352 336 326 293 217 212 230 265 19 202 198 202 211 210 203 200 198 201 206 207 105 117 128 135 133 129 139 148 144 141 137 134 135 137 136 139 143 142 135 129 130 135 136 133 129 129 133 140 145 147 149 151 152 153 154 155 157 162 170 181 190 193 193 190 191 197 203 205 206 202 192 186 180 175 176 177 179 187 196 199
216 220 228 249 245 67 17 343 328 286 240 224 229 278 341 337 287 224 208 210 202 194 195 194 181 146 116 114 121 122 123 126 126 130 131 126 124 122 123 129 134 133 131 129 126 123 123 127 129 129 126 123 125 132 136 136 137 139 140 142 144 145 146 149 156 164 169 171 169 170 180 191 197 199 202 201 193 186 185 182 175 177 183 190 198 202 202
213 214 217 234 229 74 18 344 310 239 253 285 334 338 358 32 51 88 177 187 173 167 158 139 126 119 114 117 116 113 115 118 117 118 118 117 117 118 119 121 120 117 114 112 112 114 118 121 123 125 125 125 129 135 135 133 133 131 131 136 137 136 138 144 151 156 158 158 155 160 176 187 189 191 196 195 187 182 185 185 180 182 189 195 199 200 198
212 216 210 214 178 62 24 356 317 285 328 342 324 316 84 89 91 89 85 97 123 133 125 119 117 113 109 109 108 109 110 109 106 105 105 107 111 112 112 111 107 103 100 99 98 101 105 111 118 124 127 125 126 130 135 139 139 135 134 136 135 134 137 141 144 145 149 152 152 153 163 169 173 179 183 183 183 184 186 186 186 187 189 190 192 191 188
220 237 187 104 82 64 36 20 8 322 18 24 13 82 91 87 90 94 92 95 104 113 116 116 114 110 107 105 102 100 99 97 96 95 94 96 100 101 101 103 103 102 102 101 100 100 102 107 113 122 128 128 128 135 146 149 145 140 140 140 138 139 140 139 139 140 142 147 149 151 157 162 166 170 172 174 178 181 184 190 192 189 186 187 189 189 189
94 46 66 98 100 81 53 44 61 47 44 42 44 64 73 70 73 78 79 84 92 101 107 108 106 103 99 95 91 87 85 84 82 82 84 88 91 93 95 99 104 107 107 107 108 108 110 112 116 126 134 134 137 145 151 151 147 142 139 138 138 141 140 137 138 140 142 147 150 151 153 159 164 165 168 174 178 181 188 194 193 189 188 189 191 194 200
155 146 124 113 106 89 55 37 63 52 42 40 43 52 57 60 66 68 65 68 73 76 82 89 94 96 93 89 85 78 73 72 72 72 74 76 79 83 85 91 102 108 108 109 111 111 113 116 121 128 130 128 134 143 147 148 145 140 138 138 140 140 138 136 138 142 145 148 150 151 154 160 166 168 173 180 183 187 195 195 191 191 191 188 191 198 202
165 143 125 102 92 79 41 23 45 44 38 41 46 56 69 70 68 66 64 64 63 63 68 74 81 85 87 88 88 81 69 65 65 65 66 67 68 72 73 77 88 98 102 106 109 109 110 113 115 116 117 121 129 137 142 143 141 139 140 141 142 140 138 138 140 144 148 149 151 157 161 162 165 168 173 182 188 193 198 196 193 195 194 190 193 196 192
138 118 122 113 96 78 35 24 30 23 24 41 50 57 69 74 74 73 69 62 56 54 55 59 65 68 68 73 81 80 70 61 60 63 67 68 67 65 66 67 72 79 86 92 98 103 105 108 110 109 112 121 130 135 139 142 142 141 139 139 140 140 141 142 141 143 150 155 158 162 160 151 150 158 166 178 185 186 189 193 195 192 187 185 186 187 190
142 131 150 145 122 101 55 33 26 17 18 37 49 47 49 54 61 69 70 64 56 52 51 53 58 58 53 55 65 71 66 57 52 53 58 67 70 67 67 69 69 70 71 74 81 91 97 103 108 108 111 125 137 141 143 145 144 141 139 140 142 142 142 143 143 146 155 161 162 165 161 148 145 154 163 175 177 170 176 193 203 199 179 169 167 172 192
69 232 174 140 104 98 86 49 30 23 25 39 49 46 42 44 47 54 62 61 53 49 48 51 58 61 57 53 57 62 62 55 51 51 51 53 60 64 67 72 70 69 69 68 72 83 91 98 106 112 121 137 144 142 142 148 149 146 144 144 144 144 143 141 142 150 159 160 161 164 162 157 158 161 165 173 180 183 188 199 210 212 199 185 184 189 189
314 328 116 86 87 112 111 77 45 34 27 37 45 39 35 40 40 44 56 58 52 50 47 42 47 55 59 59 57 58 57 53 47 47 48 48 49 53 60 66 67 69 72 70 72 83 94 105 118 130 139 146 149 148 149 152 151 146 144 143 143 144 142 138 143 156 162 161 166 166 158 161 170 169 164 165 170 183 198 201 202 207 208 208 217 222 216
279 82 82 81 97 110 109 93 72 52 36 42 47 36 31 34 33 35 45 48 44 44 43 37 33 35 45 57 59 57 56 51 42 38 43 48 49 50 53 55 54 58 65 69 79 95 112 130 140 145 144 146 150 152 149 148 144 140 141 144 143 145 145 144 152 165 165 162 169 170 164 170 180 180 179 178 167 158 164 177 187 203 219 226 229 227 219
132 112 106 103 102 104 106 104 102 98 85 73 67 56 43 36 31 34 42 46 43 39 38 36 29 21 23 38 50 56 57 51 44 42 43 43 40 37 37 40 40 43 52 61 70 78 87 108 121 127 132 138 143 144 139 137 135 135 142 147 141 141 148 153 160 168 167 164 169 169 167 174 181 182 185 183 167 153 150 153 159 165 182 195 194 194 192
87 110 119 114 103 91 91 95 100 105 105 101 101 102 93 73 52 42 43 49 49 39 31 33 30 18 15 21 28 42 51 48 44 44 43 39 32 21 16 22 29 34 43 53 60 60 63 82 101 109 114 119 124 127 127 127 128 132 143 148 138 133 143 152 159 162 161 161 163 164 165 170 176 178 177 171 164 163 164 169 169 155 143 150 163 168 168
57 62 80 93 92 84 83 89 96 98 96 94 101 110 115 112 101 79 60 58 58 46 29 26 23 17 21 22 17 27 45 47 39 35 36 36 29 16 9 10 14 24 39 50 57 62 65 77 99 110 111 110 116 122 123 125 130 135 144 150 148 144 147 151 152 149 149 152 156 158 161 166 169 171 172 172 175 178 181 189 184 160 142 141 150 156 157
45 52 58 66 72 76 81 83 82 77 71 68 66 69 87 97 95 86 74 68 73 74 52 30 19 12 16 22 19 21 37 45 38 29 28 26 21 14 9 1 357 10 34 46 56 69 78 90 113 124 122 121 127 131 129 131 137 142 150 159 160 156 154 153 145 136 136 143 150 150 149 154 161 166 170 176 185 192 193 193 186 166 147 143 146 149 150
32 45 52 49 46 54 62 65 67 65 60 56 53 51 57 69 74 71 58 43 44 50 43 34 30 21 15 14 12 9 12 20 20 17 19 19 15 11 6 359 350 351 30 43 48 60 78 101 122 135 141 146 146 142 138 141 144 142 143 145 141 137 141 145 145 146 148 148 150 151 150 151 159 168 174 180 191 200 198 186 177 170 158 154 158 162 159
40 43 43 38 34 39 39 40 55 62 54 51 52 46 40 43 45 37 27 23 26 27 21 20 26 27 19 11 4 359 359 2 2 3 10 13 9 6 4 2 356 352 6 21 29 38 59 102 127 136 144 150 153 151 148 148 150 152 153 147 135 136 147 153 156 170 169 155 149 154 160 163 166 173 179 184 187 191 191 182 177 179 173 169 178 182 168
49 47 41 34 33 34 26 15 29 47 47 51 56 45 28 26 29 15 360 1 13 14 11 11 12 10 4 359 355 354 356 355 353 1 12 12 8 6 5 3 360 356 352 354 10 26 37 116 158 155 151 150 154 157 155 154 160 169 172 165 152 152 172 178 169 160 153 147 146 154 163 165 161 157 160 167 174 180 184 183 184 190 188 184 193 191 172
42 55 49 37 36 46 43 22 42 60 59 58 59 45 18 9 17 13 358 1 14 17 13 8 2 353 349 350 351 351 352 347 347 10 15 11 8 6 4 3 5 6 2 355 354 1 359 164 158 161 165 163 160 161 164 167 170 172 172 165 149 137 148 160 153 143 141 143 142 142 144 147 147 148 153 161 169 180 187 188 191 197 200 206 212 200 188
38 72 77 64 46 21 62 67 76 81 78 73 76 77 50 16 23 26 15 15 27 28 17 4 353 346 346 350 350 352 358 360 4 14 13 10 7 3 359 3 14 19 14 6 358 357 12 46 130 168 178 172 158 156 163 169 169 168 170 168 151 134 139 150 151 146 143 138 132 129 134 142 145 145 149 156 164 174 186 196 207 215 226 238 235 205 201
99 110 113 119 141 194 60 68 68 69 74 79 83 84 79 66 61 55 43 39 40 32 21 10 1 356 359 3 2 6 17 19 16 13 11 11 8 359 354 3 20 28 32 31 27 27 32 51 165 183 182 172 156 146 151 156 156 157 161 159 148 141 143 148 148 145 143 141 139 138 140 139 132 126 132 150 177 195 201 207 228 248 254 252 230 189 189
87 105 113 119 122 105 88 81 75 70 71 68 60 58 58 57 57 54 47 40 36 29 23 21 18 15 18 18 13 13 19 23 22 21 17 12 7 360 1 20 39 53 61 55 46 43 61 106 160 180 180 171 157 147 150 153 149 143 142 142 142 140 139 140 142 143 142 141 140 136 133 130 127 127 138 165 208 227 223 209 216 248 250 230 207 188 180
68 78 85 80 80 81 77 72 74 80 81 75 67 64 61 59 57 53 46 41 37 31 25 24 25 26 27 27 25 26 27 28 28 28 25 18 14 20 46 67 78 89 81 64 54 57 68 84 117 150 152 142 132 133 139 144 143 140 141 142 141 138 136 138 141 138 133 132 132 130 129 129 130 136 153 179 206 224 223 201 193 216 224 213 210 204 186
88 83 80 72 66 68 69 70 75 78 80 81 78 72 64 60 55 51 50 47 42 35 32 32 35 37 37 36 38 41 40 37 38 44 49 45 40 47 61 66 68 74 72 65 67 73 73 75 92 106 108 109 113 118 122 125 127 132 137 137 132 129 130 133 133 129 127 127 126 124 128 136 141 147 160 177 185 190 195 192 199 217 223 220 221 220 202
99 92 87 80 75 73 74 73 70 66 65 73 76 70 58 52 50 53 57 53 43 35 37 40 42 45 45 44 46 47 43 39 42 53 63 65 64 66 69 66 62 59 53 53 68 75 68 65 79 90 94 101 110 114 112 108 104 108 116 118 116 119 124 127 128 131 133 130 126 131 145 153 152 154 160 165 170 173 174 180 208 226 231 232 231 229 222
88 86 84 85 86 86 85 80 75 67 60 61 63 55 40 36 41 51 57 55 46 40 41 44 46 49 48 45 47 51 49 46 45 42 48 72 92 93 87 78 67 51 32 34 61 71 63 61 76 88 93 99 107 109 106 97 90 96 110 117 121 127 135 138 140 144 143 138 140 154 162 153 147 152 158 159 168 175 169 167 194 222 238 245 242 237 237
75 76 77 79 80 81 83 83 80 74 66 60 60 55 44 38 41 46 52 53 50 48 47 47 48 51 52 53 56 58 56 53 50 40 32 46 93 119 106 86 72 60 59 72 85 87 75 69 77 89 100 109 113 114 113 109 105 109 117 124 129 139 149 153 153 153 154 153 157 162 158 150 151 159 159 158 166 175 182 202 228 239 248 252 249 246 247
76 75 74 73 72 74 78 79 78 77 72 66 62 58 53 48 49 52 54 55 52 52 54 55 51 48 50 55 62 64 60 55 53 50 47 47 49 58 78 84 80 75 76 89 105 111 106 97 95 95 100 113 122 125 127 129 125 124 130 138 146 154 162 161 155 151 151 154 156 154 155 159 160 156 155 170 190 203 223 247 254 252 252 254 252 251 250
76 75 72 70 66 65 68 67 67 68 67 61 56 56 56 55 55 55 55 55 52 51 54 57 55 52 51 52 55 61 60 55 52 56 61 61 59 61 72 85 89 84 77 83 110 120 114 106 103 104 108 115 120 121 122 124 121 122 131 138 144 151 153 147 141 141 146 152 156 154 156 163 164 158 163 188 210 222 244 261 266 263 264 265 261 257 255
70 68 67 66 64 62 62 62 61 63 64 62 57 55 54 55 55 52 50 51 51 48 46 47 47 47 48 48 46 44 43 43 41 44 61 78 78 72 72 79 87 86 74 66 96 112 105 98 104 114 120 120 115 107 99 108 114 114 121 130 136 142 141 138 141 148 151 155 158 155 152 157 163 164 167 177 199 227 238 249 265 274 277 276 271 266 261
71 67 65 65 64 60 58 56 55 56 64 70 67 58 51 50 51 49 45 45 47 48 47 49 47 42 40 43 46 44 42 41 36 29 28 50 69 66 64 72 86 88 82 74 81 92 95 102 115 123 125 120 113 102 96 106 111 116 126 134 138 141 143 145 151 154 153 153 155 153 153 163 172 174 172 179 209 244 251 260 278 282 280 278 277 274 271
72 71 66 63 60 55 52 51 52 55 60 65 64 55 46 42 43 45 42 40 41 44 48 51 51 48 41 36 37 40 45 53 52 44 35 35 42 47 46 49 73 95 103 107 103 105 115 129 143 145 138 132 127 118 115 122 128 134 139 142 144 151 156 158 159 158 160 164 164 161 166 178 185 188 189 199 231 252 251 252 266 274 276 279 282 280 274
66 73 68 59 55 52 45 43 50 57 56 52 50 46 40 37 36 39 39 39 40 45 52 54 55 54 49 41 34 29 25 28 45 53 45 35 36 48 52 54 84 137 163 195 165 126 138 156 173 176 167 164 169 172 151 149 152 151 151 154 162 168 167 166 169 172 174 172 168 172 186 201 209 212 213 221 240 251 248 247 259 269 273 277 280 277 270
49 66 65 54 55 57 46 42 54 62 55 45 40 34 30 29 33 34 35 34 31 34 46 55 55 50 47 45 44 36 24 15 18 29 26 16 8 18 37 52 90 186 214 220 208 179 173 179 187 192 192 194 202 212 202 187 183 184 184 185 191 196 192 187 188 189 185 180 184 196 207 212 218 226 231 239 250 256 255 255 262 268 271 277 283 283 277
59 86 96 80 68 61 50 49 60 59 45 36 33 23 11 12 27 35 32 26 19 15 21 37 47 44 36 29 31 34 27 11 359 358 356 349 348 355 6 18 34 232 247 252 242 216 201 201 203 203 203 205 212 220 218 208 202 205 207 205 203 206 205 202 200 199 196 197 204 212 217 221 231 243 254 264 271 271 266 262 261 261 269 282 287 284 276
63 84 84 64 54 50 44 41 44 40 27 20 17 6 356 357 16 29 25 18 12 12 14 17 23 28 24 15 14 18 14 358 345 339 334 329 327 327 323 319 298 246 252 267 270 244 215 212 217 218 216 217 222 225 223 219 214 212 212 214 214 211 206 201 201 206 211 218 224 226 230 241 254 261 264 271 277 276 270 266 263 260 262 267 268 266 266
41 51 52 46 46 51 52 45 39 31 15 2 356 353 351 351 358 17 26 18 7 4 7 7 5 6 7 3 1 1 358 351 345 340 335 330 325 315 302 290 276 254 249 260 267 257 237 225 223 220 221 226 231 232 228 225 224 222 218 219 221 222 217 213 213 216 218 224 231 236 241 250 260 266 268 272 276 276 270 267 265 262 259 258 256 256 263
47 38 30 29 38 50 49 38 26 17 7 359 354 353 353 345 340 357 23 21 5 355 355 352 345 345 351 354 351 349 348 346 344 341 337 334 329 322 310 295 280 269 262 261 263 260 251 240 229 224 225 231 238 239 233 230 231 234 234 231 230 233 233 232 231 232 230 229 233 239 245 251 257 262 265 269 272 271 267 265 263 261 260 260 258 257 259